Year,Month,Day,Hour,Minute,Value (Times are PST for windgust in km/hr)
2023,06,13,00,00,11.30
2023,06,13,00,01,11.30
2023,06,13,00,02,12.90
2023,06,13,00,03,12.90
2023,06,13,00,04,12.90
2023,06,13,00,05,11.30
2023,06,13,00,06,11.30
2023,06,13,00,07,11.30
2023,06,13,00,08,11.30
2023,06,13,00,09,11.30
2023,06,13,00,10,11.30
2023,06,13,00,11,11.30
2023,06,13,00,12,11.30
2023,06,13,00,13,11.30
2023,06,13,00,14,11.30
2023,06,13,00,15,11.30
2023,06,13,00,16,11.30
2023,06,13,00,17,12.90
2023,06,13,00,18,14.50
2023,06,13,00,19,12.90
2023,06,13,00,20,12.90
2023,06,13,00,21,11.30
2023,06,13,00,22,11.30
2023,06,13,00,23,11.30
2023,06,13,00,24,11.30
2023,06,13,00,25,11.30
2023,06,13,00,26,11.30
2023,06,13,00,27,9.60
2023,06,13,00,28,9.60
2023,06,13,00,29,9.60
2023,06,13,00,30,8.10
2023,06,13,00,31,9.60
2023,06,13,00,32,11.30
2023,06,13,00,33,11.30
2023,06,13,00,34,11.30
2023,06,13,00,35,11.30
2023,06,13,00,36,9.60
2023,06,13,00,37,11.30
2023,06,13,00,38,11.30
2023,06,13,00,39,9.60
2023,06,13,00,40,9.60
2023,06,13,00,41,11.30
2023,06,13,00,42,11.30
2023,06,13,00,43,11.30
2023,06,13,00,44,12.90
2023,06,13,00,45,14.50
2023,06,13,00,46,14.50
2023,06,13,00,47,12.90
2023,06,13,00,48,12.90
2023,06,13,00,49,12.90
2023,06,13,00,50,12.90
2023,06,13,00,51,16.10
2023,06,13,00,52,14.50
2023,06,13,00,53,12.90
2023,06,13,00,54,12.90
2023,06,13,00,55,12.90
2023,06,13,00,56,11.30
2023,06,13,00,57,9.60
2023,06,13,00,58,11.30
2023,06,13,00,59,11.30
2023,06,13,01,00,12.90
2023,06,13,01,01,12.90
2023,06,13,01,02,9.60
2023,06,13,01,03,11.30
2023,06,13,01,04,9.60
2023,06,13,01,05,9.60
2023,06,13,01,06,8.10
2023,06,13,01,07,9.60
2023,06,13,01,08,9.60
2023,06,13,01,09,9.60
2023,06,13,01,10,9.60
2023,06,13,01,11,9.60
2023,06,13,01,12,8.10
2023,06,13,01,13,9.60
2023,06,13,01,14,9.60
2023,06,13,01,15,8.10
2023,06,13,01,16,8.10
2023,06,13,01,17,6.40
2023,06,13,01,18,8.10
2023,06,13,01,19,6.40
2023,06,13,01,20,4.80
2023,06,13,01,21,3.20
2023,06,13,01,22,4.80
2023,06,13,01,23,6.40
2023,06,13,01,24,8.10
2023,06,13,01,25,8.10
2023,06,13,01,26,8.10
2023,06,13,01,27,8.10
2023,06,13,01,28,12.90
2023,06,13,01,29,12.90
2023,06,13,01,30,14.50
2023,06,13,01,31,14.50
2023,06,13,01,32,14.50
2023,06,13,01,33,11.30
2023,06,13,01,34,11.30
2023,06,13,01,35,12.90
2023,06,13,01,36,14.50
2023,06,13,01,37,16.10
2023,06,13,01,38,16.10
2023,06,13,01,39,12.90
2023,06,13,01,40,12.90
2023,06,13,01,41,12.90
2023,06,13,01,42,12.90
2023,06,13,01,43,12.90
2023,06,13,01,44,14.50
2023,06,13,01,45,14.50
2023,06,13,01,46,12.90
2023,06,13,01,47,12.90
2023,06,13,01,48,11.30
2023,06,13,01,49,11.30
2023,06,13,01,50,11.30
2023,06,13,01,51,11.30
2023,06,13,01,52,11.30
2023,06,13,01,53,11.30
2023,06,13,01,54,12.90
2023,06,13,01,55,12.90
2023,06,13,01,56,12.90
2023,06,13,01,57,12.90
2023,06,13,01,58,12.90
2023,06,13,01,59,14.50
2023,06,13,02,00,16.10
2023,06,13,02,01,14.50
2023,06,13,02,02,16.10
2023,06,13,02,03,14.50
2023,06,13,02,04,14.50
2023,06,13,02,05,14.50
2023,06,13,02,06,14.50
2023,06,13,02,07,14.50
2023,06,13,02,08,14.50
2023,06,13,02,09,14.50
2023,06,13,02,10,14.50
2023,06,13,02,11,14.50
2023,06,13,02,12,14.50
2023,06,13,02,13,12.90
2023,06,13,02,14,12.90
2023,06,13,02,15,14.50
2023,06,13,02,16,12.90
2023,06,13,02,17,12.90
2023,06,13,02,18,16.10
2023,06,13,02,19,16.10
2023,06,13,02,20,16.10
2023,06,13,02,21,16.10
2023,06,13,02,22,16.10
2023,06,13,02,23,16.10
2023,06,13,02,24,16.10
2023,06,13,02,25,16.10
2023,06,13,02,26,14.50
2023,06,13,02,27,14.50
2023,06,13,02,28,12.90
2023,06,13,02,29,12.90
2023,06,13,02,30,11.30
2023,06,13,02,31,11.30
2023,06,13,02,32,11.30
2023,06,13,02,33,11.30
2023,06,13,02,34,11.30
2023,06,13,02,35,12.90
2023,06,13,02,36,11.30
2023,06,13,02,37,9.60
2023,06,13,02,38,8.10
2023,06,13,02,39,8.10
2023,06,13,02,40,8.10
2023,06,13,02,41,8.10
2023,06,13,02,42,9.60
2023,06,13,02,43,9.60
2023,06,13,02,44,8.10
2023,06,13,02,45,8.10
2023,06,13,02,46,4.80
2023,06,13,02,47,8.10
2023,06,13,02,48,8.10
2023,06,13,02,49,4.80
2023,06,13,02,50,4.80
2023,06,13,02,51,4.80
2023,06,13,02,52,4.80
2023,06,13,02,53,8.10
2023,06,13,02,54,8.10
2023,06,13,02,55,4.80
2023,06,13,02,56,4.80
2023,06,13,02,57,4.80
2023,06,13,02,58,3.20
2023,06,13,02,59,4.80
2023,06,13,03,00,4.80
2023,06,13,03,01,4.80
2023,06,13,03,02,1.60
2023,06,13,03,03,1.60
2023,06,13,03,05,4.80
2023,06,13,03,06,6.40
2023,06,13,03,07,6.40
2023,06,13,03,08,6.40
2023,06,13,03,09,4.80
2023,06,13,03,10,1.60
2023,06,13,03,11,1.60
2023,06,13,03,12,4.80
2023,06,13,03,13,1.60
2023,06,13,03,14,1.60
2023,06,13,03,15,3.20
2023,06,13,03,16,4.80
2023,06,13,03,17,8.10
2023,06,13,03,18,6.40
2023,06,13,03,19,4.80
2023,06,13,03,20,3.20
2023,06,13,03,21,3.20
2023,06,13,03,22,6.40
2023,06,13,03,23,8.10
2023,06,13,03,24,6.40
2023,06,13,03,25,3.20
2023,06,13,03,26,1.60
2023,06,13,03,27,3.20
2023,06,13,03,28,3.20
2023,06,13,03,52,4.80
2023,06,13,03,53,6.40
2023,06,13,03,54,6.40
2023,06,13,03,55,9.60
2023,06,13,03,56,11.30
2023,06,13,03,57,9.60
2023,06,13,03,58,9.60
2023,06,13,03,59,11.30
2023,06,13,04,00,11.30
2023,06,13,04,01,9.60
2023,06,13,04,02,12.90
2023,06,13,04,03,12.90
2023,06,13,04,04,14.50
2023,06,13,04,05,12.90
2023,06,13,04,06,16.10
2023,06,13,04,07,16.10
2023,06,13,04,08,17.70
2023,06,13,04,09,16.10
2023,06,13,04,10,12.90
2023,06,13,04,11,9.60
2023,06,13,04,12,6.40
2023,06,13,04,13,6.40
2023,06,13,04,14,6.40
2023,06,13,04,15,8.10
2023,06,13,04,16,9.60
2023,06,13,04,17,9.60
2023,06,13,04,18,9.60
2023,06,13,04,19,8.10
2023,06,13,04,20,9.60
2023,06,13,04,21,9.60
2023,06,13,04,22,9.60
2023,06,13,04,23,9.60
2023,06,13,04,24,8.10
2023,06,13,04,25,8.10
2023,06,13,04,26,6.40
2023,06,13,04,27,6.40
2023,06,13,04,28,8.10
2023,06,13,04,29,8.10
2023,06,13,04,30,8.10
2023,06,13,04,31,8.10
2023,06,13,04,32,8.10
2023,06,13,04,33,8.10
2023,06,13,04,34,9.60
2023,06,13,04,35,9.60
2023,06,13,04,36,9.60
2023,06,13,04,37,9.60
2023,06,13,04,38,9.60
2023,06,13,04,39,9.60
2023,06,13,04,40,12.90
2023,06,13,04,41,12.90
2023,06,13,04,42,11.30
2023,06,13,04,43,11.30
2023,06,13,04,44,11.30
2023,06,13,04,45,11.30
2023,06,13,04,46,9.60
2023,06,13,04,47,9.60
2023,06,13,04,48,9.60
2023,06,13,04,49,8.10
2023,06,13,04,50,8.10
2023,06,13,04,51,9.60
2023,06,13,04,52,9.60
2023,06,13,04,53,9.60
2023,06,13,04,54,9.60
2023,06,13,04,55,9.60
2023,06,13,04,56,12.90
2023,06,13,04,57,12.90
2023,06,13,04,58,14.50
2023,06,13,04,59,16.10
2023,06,13,05,00,17.70
2023,06,13,05,01,17.70
2023,06,13,05,02,17.70
2023,06,13,05,03,14.50
2023,06,13,05,04,16.10
2023,06,13,05,05,16.10
2023,06,13,05,06,16.10
2023,06,13,05,07,16.10
2023,06,13,05,08,19.30
2023,06,13,05,09,19.30
2023,06,13,05,10,17.70
2023,06,13,05,11,17.70
2023,06,13,05,12,19.30
2023,06,13,05,13,19.30
2023,06,13,05,14,19.30
2023,06,13,05,15,19.30
2023,06,13,05,16,19.30
2023,06,13,05,17,20.90
2023,06,13,05,18,19.30
2023,06,13,05,19,19.30
2023,06,13,05,20,20.90
2023,06,13,05,21,20.90
2023,06,13,05,22,24.20
2023,06,13,05,23,27.40
2023,06,13,05,24,27.40
2023,06,13,05,25,30.60
2023,06,13,05,26,30.60
2023,06,13,05,27,30.60
2023,06,13,05,28,20.90
2023,06,13,05,29,24.20
2023,06,13,05,30,32.20
2023,06,13,05,31,37.00
2023,06,13,05,32,38.60
2023,06,13,05,33,40.20
2023,06,13,05,34,41.80
2023,06,13,05,35,43.50
2023,06,13,05,36,43.50
2023,06,13,05,37,45.10
2023,06,13,05,38,46.70
2023,06,13,05,39,45.10
2023,06,13,05,40,43.50
2023,06,13,05,41,43.50
2023,06,13,05,42,43.50
2023,06,13,05,43,45.10
2023,06,13,05,44,45.10
2023,06,13,05,45,43.50
2023,06,13,05,46,41.80
2023,06,13,05,47,40.20
2023,06,13,05,48,41.80
2023,06,13,05,49,40.20
2023,06,13,05,50,40.20
2023,06,13,05,51,40.20
2023,06,13,05,52,38.60
2023,06,13,05,53,38.60
2023,06,13,05,54,37.00
2023,06,13,05,55,35.40
2023,06,13,05,56,35.40
2023,06,13,05,57,35.40
2023,06,13,05,58,35.40
2023,06,13,05,59,35.40
2023,06,13,06,00,35.40
2023,06,13,06,01,35.40
2023,06,13,06,02,35.40
2023,06,13,06,03,35.40
2023,06,13,06,04,35.40
2023,06,13,06,05,35.40
2023,06,13,06,06,37.00
2023,06,13,06,07,35.40
2023,06,13,06,08,37.00
2023,06,13,06,09,38.60
2023,06,13,06,10,37.00
2023,06,13,06,11,35.40
2023,06,13,06,12,35.40
2023,06,13,06,13,35.40
2023,06,13,06,14,35.40
2023,06,13,06,15,35.40
2023,06,13,06,16,33.80
2023,06,13,06,17,33.80
2023,06,13,06,18,33.80
2023,06,13,06,19,33.80
2023,06,13,06,20,33.80
2023,06,13,06,21,35.40
2023,06,13,06,22,35.40
2023,06,13,06,23,35.40
2023,06,13,06,24,37.00
2023,06,13,06,25,35.40
2023,06,13,06,26,35.40
2023,06,13,06,27,35.40
2023,06,13,06,28,35.40
2023,06,13,06,29,35.40
2023,06,13,06,30,33.80
2023,06,13,06,31,37.00
2023,06,13,06,32,37.00
2023,06,13,06,33,37.00
2023,06,13,06,34,40.20
2023,06,13,06,35,37.00
2023,06,13,06,36,33.80
2023,06,13,06,37,35.40
2023,06,13,06,38,38.60
2023,06,13,06,39,38.60
2023,06,13,06,40,38.60
2023,06,13,06,41,38.60
2023,06,13,06,42,38.60
2023,06,13,06,43,37.00
2023,06,13,06,44,38.60
2023,06,13,06,45,37.00
2023,06,13,06,46,37.00
2023,06,13,06,47,35.40
2023,06,13,06,48,35.40
2023,06,13,06,49,33.80
2023,06,13,06,50,38.60
2023,06,13,06,51,38.60
2023,06,13,06,52,35.40
2023,06,13,06,53,35.40
2023,06,13,06,54,33.80
2023,06,13,06,55,32.20
2023,06,13,06,56,33.80
2023,06,13,06,57,33.80
2023,06,13,06,58,35.40
2023,06,13,06,59,35.40
2023,06,13,07,00,41.80
2023,06,13,07,01,38.60
2023,06,13,07,02,35.40
2023,06,13,07,03,37.00
2023,06,13,07,04,38.60
2023,06,13,07,05,45.10
2023,06,13,07,06,46.70
2023,06,13,07,07,45.10
2023,06,13,07,08,45.10
2023,06,13,07,09,46.70
2023,06,13,07,10,45.10
2023,06,13,07,11,43.50
2023,06,13,07,12,43.50
2023,06,13,07,13,43.50
2023,06,13,07,14,41.80
2023,06,13,07,15,41.80
2023,06,13,07,16,43.50
2023,06,13,07,17,45.10
2023,06,13,07,18,48.30
2023,06,13,07,19,49.90
2023,06,13,07,20,51.50
2023,06,13,07,21,48.30
2023,06,13,07,22,49.90
2023,06,13,07,23,48.30
2023,06,13,07,24,46.70
2023,06,13,07,25,51.50
2023,06,13,07,26,49.90
2023,06,13,07,27,49.90
2023,06,13,07,28,43.50
2023,06,13,07,29,45.10
2023,06,13,07,30,45.10
2023,06,13,07,31,41.80
2023,06,13,07,32,40.20
2023,06,13,07,33,40.20
2023,06,13,07,34,40.20
2023,06,13,07,35,38.60
2023,06,13,07,36,37.00
2023,06,13,07,37,37.00
2023,06,13,07,38,37.00
2023,06,13,07,39,38.60
2023,06,13,07,40,38.60
2023,06,13,07,41,37.00
2023,06,13,07,42,41.80
2023,06,13,07,43,40.20
2023,06,13,07,44,41.80
2023,06,13,07,45,40.20
2023,06,13,07,46,43.50
2023,06,13,07,47,43.50
2023,06,13,07,48,45.10
2023,06,13,07,49,45.10
2023,06,13,07,50,43.50
2023,06,13,07,51,45.10
2023,06,13,07,52,45.10
2023,06,13,07,53,43.50
2023,06,13,07,54,43.50
2023,06,13,07,55,38.60
2023,06,13,07,56,40.20
2023,06,13,07,57,38.60
2023,06,13,07,58,43.50
2023,06,13,07,59,40.20
2023,06,13,08,00,35.40
2023,06,13,08,01,30.60
2023,06,13,08,02,32.20
2023,06,13,08,03,30.60
2023,06,13,08,04,29.00
2023,06,13,08,05,25.70
2023,06,13,08,06,27.40
2023,06,13,08,07,30.60
2023,06,13,08,08,30.60
2023,06,13,08,09,29.00
2023,06,13,08,10,32.20
2023,06,13,08,11,29.00
2023,06,13,08,12,27.40
2023,06,13,08,13,27.40
2023,06,13,08,14,25.70
2023,06,13,08,15,37.00
2023,06,13,08,16,32.20
2023,06,13,08,17,29.00
2023,06,13,08,18,30.60
2023,06,13,08,19,29.00
2023,06,13,08,20,22.50
2023,06,13,08,21,19.30
2023,06,13,08,22,20.90
2023,06,13,08,23,27.40
2023,06,13,08,24,24.20
2023,06,13,08,25,32.20
2023,06,13,08,26,27.40
2023,06,13,08,27,29.00
2023,06,13,08,28,25.70
2023,06,13,08,29,27.40
2023,06,13,08,30,30.60
2023,06,13,08,31,22.50
2023,06,13,08,32,19.30
2023,06,13,08,33,20.90
2023,06,13,08,34,24.20
2023,06,13,08,35,20.90
2023,06,13,08,36,24.20
2023,06,13,08,37,20.90
2023,06,13,08,38,20.90
2023,06,13,08,39,25.70
2023,06,13,08,40,24.20
2023,06,13,08,41,25.70
2023,06,13,08,42,22.50
2023,06,13,08,43,22.50
2023,06,13,08,44,20.90
2023,06,13,08,45,19.30
2023,06,13,08,46,17.70
2023,06,13,08,47,20.90
2023,06,13,08,48,14.50
2023,06,13,08,49,16.10
2023,06,13,08,50,19.30
2023,06,13,08,51,30.60
2023,06,13,08,52,33.80
2023,06,13,08,53,33.80
2023,06,13,08,54,35.40
2023,06,13,08,55,37.00
2023,06,13,08,56,38.60
2023,06,13,08,57,38.60
2023,06,13,08,58,37.00
2023,06,13,08,59,38.60
2023,06,13,09,00,37.00
2023,06,13,09,01,41.80
2023,06,13,09,02,43.50
2023,06,13,09,03,41.80
2023,06,13,09,04,45.10
2023,06,13,09,05,45.10
2023,06,13,09,06,48.30
2023,06,13,09,07,49.90
2023,06,13,09,08,49.90
2023,06,13,09,09,48.30
2023,06,13,09,10,46.70
2023,06,13,09,11,46.70
2023,06,13,09,12,45.10
2023,06,13,09,13,45.10
2023,06,13,09,14,45.10
2023,06,13,09,15,45.10
2023,06,13,09,16,46.70
2023,06,13,09,17,46.70
2023,06,13,09,18,46.70
2023,06,13,09,19,45.10
2023,06,13,09,20,43.50
2023,06,13,09,21,40.20
2023,06,13,09,22,40.20
2023,06,13,09,23,38.60
2023,06,13,09,24,38.60
2023,06,13,09,25,37.00
2023,06,13,09,26,38.60
2023,06,13,09,27,40.20
2023,06,13,09,28,38.60
2023,06,13,09,29,38.60
2023,06,13,09,30,40.20
2023,06,13,09,31,38.60
2023,06,13,09,32,38.60
2023,06,13,09,33,38.60
2023,06,13,09,34,37.00
2023,06,13,09,35,33.80
2023,06,13,09,36,38.60
2023,06,13,09,37,40.20
2023,06,13,09,38,37.00
2023,06,13,09,39,40.20
2023,06,13,09,40,43.50
2023,06,13,09,41,45.10
2023,06,13,09,42,41.80
2023,06,13,09,43,37.00
2023,06,13,09,44,38.60
2023,06,13,09,45,38.60
2023,06,13,09,46,40.20
2023,06,13,09,47,41.80
2023,06,13,09,48,41.80
2023,06,13,09,49,40.20
2023,06,13,09,50,35.40
2023,06,13,09,51,38.60
2023,06,13,09,52,38.60
2023,06,13,09,53,38.60
2023,06,13,09,54,41.80
2023,06,13,09,55,43.50
2023,06,13,09,56,43.50
2023,06,13,09,57,43.50
2023,06,13,09,58,46.70
2023,06,13,09,59,45.10
2023,06,13,10,00,45.10
2023,06,13,10,01,48.30
2023,06,13,10,02,45.10
2023,06,13,10,03,45.10
2023,06,13,10,04,43.50
2023,06,13,10,05,45.10
2023,06,13,10,06,43.50
2023,06,13,10,07,45.10
2023,06,13,10,08,48.30
2023,06,13,10,09,51.50
2023,06,13,10,10,49.90
2023,06,13,10,11,48.30
2023,06,13,10,12,51.50
2023,06,13,10,13,49.90
2023,06,13,10,14,49.90
2023,06,13,10,15,48.30
2023,06,13,10,16,46.70
2023,06,13,10,17,46.70
2023,06,13,10,18,51.50
2023,06,13,10,19,53.10
2023,06,13,10,20,54.70
2023,06,13,10,21,53.10
2023,06,13,10,22,56.30
2023,06,13,10,23,57.90
2023,06,13,10,24,56.30
2023,06,13,10,25,54.70
2023,06,13,10,26,57.90
2023,06,13,10,27,56.30
2023,06,13,10,28,54.70
2023,06,13,10,29,59.50
2023,06,13,10,30,56.30
2023,06,13,10,31,53.10
2023,06,13,10,32,53.10
2023,06,13,10,33,53.10
2023,06,13,10,34,53.10
2023,06,13,10,35,56.30
2023,06,13,10,36,57.90
2023,06,13,10,37,59.50
2023,06,13,10,38,56.30
2023,06,13,10,39,59.50
2023,06,13,10,40,59.50
2023,06,13,10,41,61.20
2023,06,13,10,42,64.40
2023,06,13,10,43,62.70
2023,06,13,10,44,64.40
2023,06,13,10,45,66.00
2023,06,13,10,46,67.60
2023,06,13,10,47,70.80
2023,06,13,10,48,66.00
2023,06,13,10,49,67.60
2023,06,13,10,50,69.20
2023,06,13,10,51,64.40
2023,06,13,10,52,66.00
2023,06,13,10,53,69.20
2023,06,13,10,54,66.00
2023,06,13,10,55,62.70
2023,06,13,10,56,66.00
2023,06,13,10,57,66.00
2023,06,13,10,58,64.40
2023,06,13,10,59,66.00
2023,06,13,11,00,64.40
2023,06,13,11,01,66.00
2023,06,13,11,02,67.60
2023,06,13,11,03,67.60
2023,06,13,11,04,67.60
2023,06,13,11,05,66.00
2023,06,13,11,06,67.60
2023,06,13,11,07,66.00
2023,06,13,11,08,69.20
2023,06,13,11,09,66.00
2023,06,13,11,10,66.00
2023,06,13,11,11,69.20
2023,06,13,11,12,72.40
2023,06,13,11,13,72.40
2023,06,13,11,14,72.40
2023,06,13,11,15,70.80
2023,06,13,11,16,70.80
2023,06,13,11,17,66.00
2023,06,13,11,18,66.00
2023,06,13,11,19,67.60
2023,06,13,11,20,64.40
2023,06,13,11,21,66.00
2023,06,13,11,22,64.40
2023,06,13,11,23,66.00
2023,06,13,11,24,62.70
2023,06,13,11,25,59.50
2023,06,13,11,26,61.20
2023,06,13,11,27,61.20
2023,06,13,11,28,62.70
2023,06,13,11,29,59.50
2023,06,13,11,30,64.40
2023,06,13,11,31,66.00
2023,06,13,11,32,62.70
2023,06,13,11,33,61.20
2023,06,13,11,34,64.40
2023,06,13,11,35,64.40
2023,06,13,11,36,67.60
2023,06,13,11,37,64.40
2023,06,13,11,38,66.00
2023,06,13,11,39,69.20
2023,06,13,11,40,66.00
2023,06,13,11,41,69.20
2023,06,13,11,42,70.80
2023,06,13,11,43,67.60
2023,06,13,11,44,70.80
2023,06,13,11,45,72.40
2023,06,13,11,46,72.40
2023,06,13,11,47,75.60
2023,06,13,11,48,72.40
2023,06,13,11,49,75.60
2023,06,13,11,50,75.60
2023,06,13,11,51,77.30
2023,06,13,11,52,70.80
2023,06,13,11,53,77.30
2023,06,13,11,54,78.80
2023,06,13,11,55,74.00
2023,06,13,11,56,77.30
2023,06,13,11,57,75.60
2023,06,13,11,58,77.30
2023,06,13,11,59,77.30
2023,06,13,12,00,77.30
2023,06,13,12,01,77.30
2023,06,13,12,02,78.80
2023,06,13,12,03,77.30
2023,06,13,12,04,78.80
2023,06,13,12,05,77.30
2023,06,13,12,06,74.00
2023,06,13,12,07,72.40
2023,06,13,12,08,77.30
2023,06,13,12,09,75.60
2023,06,13,12,10,74.00
2023,06,13,12,11,78.80
2023,06,13,12,12,75.60
2023,06,13,12,13,72.40
2023,06,13,12,14,69.20
2023,06,13,12,15,72.40
2023,06,13,12,16,72.40
2023,06,13,12,17,77.30
2023,06,13,12,18,74.00
2023,06,13,12,19,70.80
2023,06,13,12,20,69.20
2023,06,13,12,21,72.40
2023,06,13,12,22,72.40
2023,06,13,12,23,74.00
2023,06,13,12,24,66.00
2023,06,13,12,25,67.60
2023,06,13,12,26,66.00
2023,06,13,12,27,70.80
2023,06,13,12,28,70.80
2023,06,13,12,29,70.80
2023,06,13,12,30,69.20
2023,06,13,12,31,69.20
2023,06,13,12,32,72.40
2023,06,13,12,33,70.80
2023,06,13,12,34,61.20
2023,06,13,12,35,61.20
2023,06,13,12,36,61.20
2023,06,13,12,37,61.20
2023,06,13,12,38,61.20
2023,06,13,12,39,67.60
2023,06,13,12,40,66.00
2023,06,13,12,41,69.20
2023,06,13,12,42,66.00
2023,06,13,12,43,62.70
2023,06,13,12,44,61.20
2023,06,13,12,45,62.70
2023,06,13,12,46,61.20
2023,06,13,12,47,64.40
2023,06,13,12,48,64.40
2023,06,13,12,49,57.90
2023,06,13,12,50,57.90
2023,06,13,12,51,57.90
2023,06,13,12,52,62.70
2023,06,13,12,53,61.20
2023,06,13,12,54,64.40
2023,06,13,12,55,61.20
2023,06,13,12,56,66.00
2023,06,13,12,57,62.70
2023,06,13,12,58,61.20
2023,06,13,12,59,59.50
2023,06,13,13,00,56.30
2023,06,13,13,01,57.90
2023,06,13,13,02,57.90
2023,06,13,13,03,59.50
2023,06,13,13,04,56.30
2023,06,13,13,05,51.50
2023,06,13,13,06,57.90
2023,06,13,13,07,59.50
2023,06,13,13,08,56.30
2023,06,13,13,09,64.40
2023,06,13,13,10,61.20
2023,06,13,13,11,64.40
2023,06,13,13,12,62.70
2023,06,13,13,13,64.40
2023,06,13,13,14,66.00
2023,06,13,13,15,69.20
2023,06,13,13,16,66.00
2023,06,13,13,17,62.70
2023,06,13,13,18,64.40
2023,06,13,13,19,56.30
2023,06,13,13,20,54.70
2023,06,13,13,21,54.70
2023,06,13,13,22,54.70
2023,06,13,13,23,54.70
2023,06,13,13,24,56.30
2023,06,13,13,25,57.90
2023,06,13,13,26,57.90
2023,06,13,13,27,56.30
2023,06,13,13,28,56.30
2023,06,13,13,29,54.70
2023,06,13,13,30,53.10
2023,06,13,13,31,53.10
2023,06,13,13,32,53.10
2023,06,13,13,33,54.70
2023,06,13,13,34,54.70
2023,06,13,13,35,49.90
2023,06,13,13,36,53.10
2023,06,13,13,37,51.50
2023,06,13,13,38,48.30
2023,06,13,13,39,46.70
2023,06,13,13,40,49.90
2023,06,13,13,41,46.70
2023,06,13,13,42,46.70
2023,06,13,13,43,46.70
2023,06,13,13,44,54.70
2023,06,13,13,45,51.50
2023,06,13,13,46,51.50
2023,06,13,13,47,51.50
2023,06,13,13,48,49.90
2023,06,13,13,49,51.50
2023,06,13,13,50,51.50
2023,06,13,13,51,54.70
2023,06,13,13,52,49.90
2023,06,13,13,53,51.50
2023,06,13,13,54,51.50
2023,06,13,13,55,51.50
2023,06,13,13,56,49.90
2023,06,13,13,57,51.50
2023,06,13,13,58,49.90
2023,06,13,13,59,46.70
2023,06,13,14,00,46.70
2023,06,13,14,01,49.90
2023,06,13,14,02,46.70
2023,06,13,14,03,45.10
2023,06,13,14,04,51.50
2023,06,13,14,05,53.10
2023,06,13,14,06,54.70
2023,06,13,14,07,54.70
2023,06,13,14,08,56.30
2023,06,13,14,09,57.90
2023,06,13,14,10,56.30
2023,06,13,14,11,57.90
2023,06,13,14,12,64.40
2023,06,13,14,13,61.20
2023,06,13,14,14,56.30
2023,06,13,14,15,54.70
2023,06,13,14,16,56.30
2023,06,13,14,17,59.50
2023,06,13,14,18,57.90
2023,06,13,14,19,57.90
2023,06,13,14,20,57.90
2023,06,13,14,21,53.10
2023,06,13,14,22,54.70
2023,06,13,14,23,56.30
2023,06,13,14,24,53.10
2023,06,13,14,25,53.10
2023,06,13,14,26,57.90
2023,06,13,14,27,57.90
2023,06,13,14,28,61.20
2023,06,13,14,29,56.30
2023,06,13,14,30,61.20
2023,06,13,14,31,61.20
2023,06,13,14,32,54.70
2023,06,13,14,33,56.30
2023,06,13,14,34,59.50
2023,06,13,14,35,57.90
2023,06,13,14,36,51.50
2023,06,13,14,37,54.70
2023,06,13,14,38,59.50
2023,06,13,14,39,57.90
2023,06,13,14,40,56.30
2023,06,13,14,41,59.50
2023,06,13,14,42,62.70
2023,06,13,14,43,59.50
2023,06,13,14,44,62.70
2023,06,13,14,45,62.70
2023,06,13,14,46,69.20
2023,06,13,14,47,70.80
2023,06,13,14,48,69.20
2023,06,13,14,49,66.00
2023,06,13,14,50,67.60
2023,06,13,14,51,67.60
2023,06,13,14,52,69.20
2023,06,13,14,53,69.20
2023,06,13,14,54,66.00
2023,06,13,14,55,69.20
2023,06,13,14,56,75.60
2023,06,13,14,57,78.80
2023,06,13,14,58,72.40
2023,06,13,14,59,70.80
2023,06,13,15,00,72.40
2023,06,13,15,01,72.40
2023,06,13,15,02,67.60
2023,06,13,15,03,64.40
2023,06,13,15,04,66.00
2023,06,13,15,05,66.00
2023,06,13,15,06,64.40
2023,06,13,15,07,67.60
2023,06,13,15,08,67.60
2023,06,13,15,09,72.40
2023,06,13,15,10,72.40
2023,06,13,15,11,70.80
2023,06,13,15,12,67.60
2023,06,13,15,13,69.20
2023,06,13,15,14,69.20
2023,06,13,15,15,69.20
2023,06,13,15,16,72.40
2023,06,13,15,17,67.60
2023,06,13,15,18,69.20
2023,06,13,15,19,64.40
2023,06,13,15,20,62.70
2023,06,13,15,21,62.70
2023,06,13,15,22,62.70
2023,06,13,15,23,61.20
2023,06,13,15,24,62.70
2023,06,13,15,25,62.70
2023,06,13,15,26,64.40
2023,06,13,15,27,66.00
2023,06,13,15,28,66.00
2023,06,13,15,29,67.60
2023,06,13,15,30,67.60
2023,06,13,15,31,66.00
2023,06,13,15,32,67.60
2023,06,13,15,33,70.80
2023,06,13,15,34,69.20
2023,06,13,15,35,67.60
2023,06,13,15,36,64.40
2023,06,13,15,37,64.40
2023,06,13,15,38,64.40
2023,06,13,15,39,66.00
2023,06,13,15,40,64.40
2023,06,13,15,41,64.40
2023,06,13,15,42,69.20
2023,06,13,15,43,67.60
2023,06,13,15,44,70.80
2023,06,13,15,45,66.00
2023,06,13,15,46,67.60
2023,06,13,15,47,66.00
2023,06,13,15,48,67.60
2023,06,13,15,49,61.20
2023,06,13,15,50,67.60
2023,06,13,15,51,67.60
2023,06,13,15,52,66.00
2023,06,13,15,53,62.70
2023,06,13,15,54,62.70
2023,06,13,15,55,64.40
2023,06,13,15,56,67.60
2023,06,13,15,57,70.80
2023,06,13,15,58,67.60
2023,06,13,15,59,67.60
2023,06,13,16,00,67.60
2023,06,13,16,01,67.60
2023,06,13,16,02,69.20
2023,06,13,16,03,66.00
2023,06,13,16,04,70.80
2023,06,13,16,05,66.00
2023,06,13,16,06,64.40
2023,06,13,16,07,66.00
2023,06,13,16,08,70.80
2023,06,13,16,09,75.60
2023,06,13,16,10,72.40
2023,06,13,16,11,77.30
2023,06,13,16,12,75.60
2023,06,13,16,13,74.00
2023,06,13,16,14,72.40
2023,06,13,16,15,69.20
2023,06,13,16,16,77.30
2023,06,13,16,17,72.40
2023,06,13,16,18,77.30
2023,06,13,16,19,80.50
2023,06,13,16,20,83.70
2023,06,13,16,21,83.70
2023,06,13,16,22,85.30
2023,06,13,16,23,86.90
2023,06,13,16,24,75.60
2023,06,13,16,25,78.80
2023,06,13,16,26,74.00
2023,06,13,16,27,78.80
2023,06,13,16,28,75.60
2023,06,13,16,29,70.80
2023,06,13,16,30,70.80
2023,06,13,16,31,69.20
2023,06,13,16,32,64.40
2023,06,13,16,33,75.60
2023,06,13,16,34,75.60
2023,06,13,16,35,69.20
2023,06,13,16,36,67.60
2023,06,13,16,37,67.60
2023,06,13,16,38,67.60
2023,06,13,16,39,70.80
2023,06,13,16,40,72.40
2023,06,13,16,41,69.20
2023,06,13,16,42,70.80
2023,06,13,16,43,66.00
2023,06,13,16,44,66.00
2023,06,13,16,45,66.00
2023,06,13,16,46,62.70
2023,06,13,16,47,62.70
2023,06,13,16,48,61.20
2023,06,13,16,49,59.50
2023,06,13,16,50,64.40
2023,06,13,16,51,70.80
2023,06,13,16,52,67.60
2023,06,13,16,53,67.60
2023,06,13,16,54,62.70
2023,06,13,16,55,67.60
2023,06,13,16,56,64.40
2023,06,13,16,57,69.20
2023,06,13,16,58,64.40
2023,06,13,16,59,54.70
2023,06,13,17,00,56.30
2023,06,13,17,01,56.30
2023,06,13,17,02,57.90
2023,06,13,17,03,53.10
2023,06,13,17,04,59.50
2023,06,13,17,05,51.50
2023,06,13,17,06,56.30
2023,06,13,17,07,59.50
2023,06,13,17,08,59.50
2023,06,13,17,09,57.90
2023,06,13,17,10,64.40
2023,06,13,17,11,67.60
2023,06,13,17,12,66.00
2023,06,13,17,13,57.90
2023,06,13,17,14,62.70
2023,06,13,17,15,66.00
2023,06,13,17,16,54.70
2023,06,13,17,17,61.20
2023,06,13,17,18,59.50
2023,06,13,17,19,66.00
2023,06,13,17,20,64.40
2023,06,13,17,21,64.40
2023,06,13,17,22,61.20
2023,06,13,17,23,59.50
2023,06,13,17,24,61.20
2023,06,13,17,25,62.70
2023,06,13,17,26,61.20
2023,06,13,17,27,62.70
2023,06,13,17,28,72.40
2023,06,13,17,29,70.80
2023,06,13,17,30,70.80
2023,06,13,17,31,66.00
2023,06,13,17,32,69.20
2023,06,13,17,33,78.80
2023,06,13,17,34,77.30
2023,06,13,17,35,82.10
2023,06,13,17,36,82.10
2023,06,13,17,37,77.30
2023,06,13,17,38,78.80
2023,06,13,17,39,78.80
2023,06,13,17,40,82.10
2023,06,13,17,41,77.30
2023,06,13,17,42,90.10
2023,06,13,17,43,88.50
2023,06,13,17,44,86.90
2023,06,13,17,45,90.10
2023,06,13,17,46,82.10
2023,06,13,17,47,75.60
2023,06,13,17,48,74.00
2023,06,13,17,49,86.90